This demonstration page uses our WeatherBlox Daily Observations layout. Learn more.

Left ArrowRight Arrow

Hourly Observations for April 29, 2018

Temp ( °F °C ) Dew Point ( °F °C ) Humidity (%) Winds ( mph kmh ) Pressure ( in mb ) Visibility ( mi km ) Precip ( " mm )
12:56 am 00:56 Clear 49 9.4 34 1.1 56 56 SE 12 19 30.05 1018 10 16 0.00 0.00
1:56 am 01:56 Clear 50 10 35 1.7 57 57 SE 16 26 30.04 1017 10 16 0.00 0.00
2:56 am 02:56 Mostly Clear 49 9.4 35 1.7 59 59 SSE 15 24 30.02 1017 10 16 0.00 0.00
3:56 am 03:56 Clear 49 9.4 35 1.7 59 59 SSE 17 28 30.01 1016 10 16 0.00 0.00
4:56 am 04:56 Clear 50 10 35 1.7 57 57 SSE 14 22 30.00 1016 10 16 0.00 0.00
5:56 am 05:56 Clear 49 9.4 36 2.2 61 61 SE 15 24 30.00 1016 10 16 0.00 0.00
6:56 am 06:56 Sunny 50 10 36 2.2 59 59 SSE 18 30 29.98 1015 10 16 0.00 0.00
7:56 am 07:56 Sunny 52 11.1 37 2.8 57 57 SSE 21 33 29.98 1015 10 16 0.00 0.00
8:56 am 08:56 Sunny 55 12.8 38 3.3 53 53 SSE 28 44 29.97 1015 10 16 0.00 0.00
9:56 am 09:56 Sunny 60 15.6 41 5 50 50 SSE 23 37 29.94 1014 10 16 0.00 0.00
10:56 am 10:56 Sunny 68 20 42 5.6 39 39 SSE 33 54 29.91 1013 10 16 0.00 0.00
11:56 am 11:56 Sunny 74 23.3 45 7.2 36 36 SSE 40 65 29.85 1011 10 16 0.00 0.00
12:56 pm 12:56 Sunny 77 25 47 8.3 35 35 S 41 67 29.81 1010 10 16 0.00 0.00
1:56 pm 13:56 Sunny 79 26.1 48 8.9 34 34 SSE 38 61 29.78 1008 10 16 0.00 0.00
2:56 pm 14:56 Sunny 81 27.2 50 10 34 34 S 40 65 29.76 1008 10 16 0.00 0.00
3:56 pm 15:56 Sunny 81 27.2 51 10.6 35 35 S 35 56 29.74 1007 10 16 0.00 0.00
4:56 pm 16:56 Sunny 81 27.2 51 10.6 35 35 S 32 52 29.72 1007 10 16 0.00 0.00
5:56 pm 17:56 Sunny 78 25.6 50 10 37 37 S 33 54 29.71 1006 10 16 0.00 0.00
6:56 pm 18:56 Sunny 77 25 51 10.6 40 40 SSE 32 52 29.70 1006 10 16 0.00 0.00
7:56 pm 19:56 Sunny 76 24.4 49 9.4 39 39 S 30 48 29.71 1006 10 16 0.00 0.00
8:56 pm 20:56 Clear 73 22.8 49 9.4 43 43 S 28 44 29.72 1006 10 16 0.00 0.00
9:56 pm 21:56 Clear 70 21.1 49 9.4 47 47 S 25 41 29.73 1007 10 16 0.00 0.00
10:56 pm 22:56 Clear 69 20.6 49 9.4 49 49 S 28 44 29.73 1007 10 16 0.00 0.00
11:56 pm 23:56 Clear 68 20 48 8.9 49 49 S 30 48 29.72 1006 10 16 0.00 0.00

Powered by AerisWeather